Location: Newark
(33.6439°N, 114.9881°W)
Time: 00:20:24
(UTC+00:00)

Tiros 1 - Pass Details

Date: 30 July 2019
Orbit: 630 x 664 km, 48.4° (Epoch: 19 August)

Event Time Altitude Azimuth Distance (km) Brightness Sun altitude
Rises 21:16:25 0° 314° (NW) 2,995 10.7 64.8°
Reaches altitude 10° 21:19:04 10° 326° (NW) 2,082 9.9 64.3°
Maximum altitude 21:23:13 28° 26° (NNE) 1,238 8.7 63.6°
Drops below altitude 10° 21:27:21 10° 85° (E) 2,075 9.6 62.8°
Sets 21:29:58 0° 97° (E) 2,982 10.3 62.3°
